User: anonymous   Login
Location: Unspecified
(0.0000°N, 0.0000°E)
Time: 06:50:25
(UTC+00:00)
Language:

AGILE - Orbit

View from above orbital plane
View from above orbital plane
View from above satellite
View from above satellite

Ground track
Ground track

The orbit data is extracted from the following two-line orbital elements,

1 31135U 07013A   16269.10708060 +.00003810 +00000-0 +93739-4 0  9997
2 31135 002.4685 011.5598 0013447 198.5905 161.3657 15.28616124155674
Epoch (UTC): 25 September 2016 02:34:11
Eccentricity: 0.0013447
inclination: 2.4685°
perigee height: 471 km
apogee height: 489 km
right ascension of ascending node: 11.5598°
argument of perigee: 198.5905°
revolutions per day: 15.28616124
mean anomaly at epoch: 161.3657°
orbit number at epoch: 15567

The dashed part of the orbit path shows where the satellite is in the earth's shadow,  

DLR